STARLINK-32782, 62821

Orbit data source: Space-Track

STARLINK-32782, 62821 is a payload satellite owned by SpaceX/Seattle (US) in LEO that was launched on Fri, 24 Jan 2025 UTC via an FALCON 9 launch vehicle from the Air Force Western Test Range (AFWTR). Payload-class satellites include a variety of spacecraft equipped with specific instruments for various scientific and technological missions. These include communications satellites like Starlink; space stations such as the ISS; scientific satellites like the Hubble; Earth observation satellites from companies like Planet Labs, Umbra, and HawkEye 360; GPS; miniature CubeSats for education and research; and military/defense satellites.

Loading next visibility...
Identifier
62821, 2025-018R
Orbit
LEO
Country
Flag of USUS
Related business
Manufacturer
SpaceX/Seattle
Mission
Operational Commercial Communications
Bus & Motor
STARLINK V2M, Unknown motor
Mass
730 kg wet, ~700 kg dry
Launch date (UTC)
2025-01-24 (9 months ago)
Launch vehicle
FALCON 9
Launch site
Air Force Western Test Range (AFWTR)
Object type
Payload
Rocket body
Debris
Shape & HBR
Box + 2 Pan, 17.7 m
Radar Cross Section
33.884 m², Large (>1 m²)

Expand to show TLE details & history
Last TLE update: 1 day ago

TLE from 1 day ago
0 STARLINK-32782
1 62821U 25018R   25305.95628386  .00020995  00000-0  71904-3 0  9996
2 62821  53.1577 182.7773 0000807  82.1064 278.0028 15.30196777 43628
Epoch: 2025-11-01T22:57Z
TLE epoch observation values (Epoch: 2025-11-01T22:57:02.925Z)
Latitude
-0.00005°
Longitude
157.03615°
Altitude
476.047 km
Speed
7.629 km/s
True Right ascension
12h 11m 06s
True Declination
0° 00' 00"
Sunlit
Object was in daylight at epoch
Visualization orbit readout
Latitude
Unknown
Longitude
Unknown
Altitude
Unknown
Speed
Unknown
Apparent Right ascension
Unknown
Apparent Declination
Unknown
Sunlit
N/A
Visualization observer readout
Local Sidereal Time
22:55:48
Azimuth
Unknown
Elevation
Unknown
Doppler factor
Unknown
Orbital elements
Apogee altitude
476.035 km
Perigee altitude
474.928 km
Semi-major axis
6,853.618 km
Eccentricity
0.00008
Inclination
53.1577°
RAAN
182.7773°
Arg. of periapsis
82.1064°
True anomaly
277.99364°
Mean anomaly
278.0028°
Eccentric anomaly
277.99822°
Mean motion
3.82528 °/min
Orbital period
94.11 mins
BSTAR
0.00071904
Loading maneuver chart data...
Computing Atmospheric mass density...
Loading historical data...
Loading historical data...
Loading historical data...
Loading historical data...
Loading historical data...
Loading historical data...
Loading historical data...

Documentation

Showing up to 5 results
|